Time,TemperatureF,DewpointF,PressureIn,WindDirection,WindDirectionDegrees,WindSpeedMPH,WindSpeedGustMPH,Humidity,HourlyPrecipIn,Conditions,Clouds,dailyrainin,SoftwareType,DateUTC
2013-02-21 00:03:00,20.0,9.0,29.90,WNW,299,1.0,-999.0,62,-99.99,,,-99.99,,2013-02-21 05:03:00,
2013-02-21 00:12:00,20.0,9.0,29.90,WNW,299,1.0,-999.0,62,-99.99,,,-99.99,,2013-02-21 05:12:00,
2013-02-21 00:22:00,20.0,10.0,29.90,WNW,299,1.0,-999.0,64,-99.99,,,-99.99,,2013-02-21 05:22:00,
2013-02-21 00:36:00,20.0,10.0,29.91,WNW,290,2.0,-999.0,64,-99.99,,,-99.99,,2013-02-21 05:36:00,
2013-02-21 00:45:00,20.0,10.0,29.91,WNW,290,2.0,-999.0,64,-99.99,,,-99.99,,2013-02-21 05:45:00,
2013-02-21 00:54:00,20.0,10.0,29.91,NW,324,1.0,-999.0,64,-99.99,,,-99.99,,2013-02-21 05:54:00,
2013-02-21 01:01:00,20.0,10.0,29.91,WNW,301,1.0,-999.0,65,-99.99,,,-99.99,,2013-02-21 06:01:00,
2013-02-21 01:11:00,20.0,10.0,29.91,WNW,301,1.0,-999.0,65,-99.99,,,-99.99,,2013-02-21 06:11:00,
2013-02-21 01:21:00,21.0,11.0,29.90,NW,320,3.0,-999.0,64,-99.99,,,-99.99,,2013-02-21 06:21:00,
2013-02-21 01:31:00,21.0,11.0,29.90,NNW,344,2.0,-999.0,64,-99.99,,,-99.99,,2013-02-21 06:31:00,
2013-02-21 01:41:00,21.0,11.0,29.90,NNW,344,2.0,-999.0,64,-99.99,,,-99.99,,2013-02-21 06:41:00,
2013-02-21 01:51:00,21.0,11.0,29.89,WNW,294,2.0,-999.0,65,-99.99,,,-99.99,,2013-02-21 06:51:00,
2013-02-21 02:01:00,21.0,11.0,29.89,WNW,299,2.0,-999.0,65,-99.99,,,-99.99,,2013-02-21 07:01:00,
2013-02-21 02:11:00,20.0,11.0,29.89,WSW,239,4.0,-999.0,66,-99.99,,,-99.99,,2013-02-21 07:11:00,
2013-02-21 02:21:00,20.0,11.0,29.89,WSW,239,4.0,-999.0,66,-99.99,,,-99.99,,2013-02-21 07:21:00,
2013-02-21 02:32:00,20.0,11.0,29.89,NNW,329,3.0,-999.0,66,-99.99,,,-99.99,,2013-02-21 07:32:00,
2013-02-21 02:42:00,20.0,11.0,29.89,NNW,336,2.0,-999.0,66,-99.99,,,-99.99,,2013-02-21 07:42:00,
2013-02-21 02:52:00,20.0,11.0,29.89,NNW,336,2.0,-999.0,66,-99.99,,,-99.99,,2013-02-21 07:52:00,
2013-02-21 03:02:00,20.0,11.0,29.89,NW,320,3.0,-999.0,66,-99.99,,,-99.99,,2013-02-21 08:02:00,
2013-02-21 03:11:00,20.0,11.0,29.89,SW,233,3.0,-999.0,67,-99.99,,,-99.99,,2013-02-21 08:11:00,
2013-02-21 03:21:00,20.0,11.0,29.89,SW,233,3.0,-999.0,67,-99.99,,,-99.99,,2013-02-21 08:21:00,
2013-02-21 03:32:00,20.0,11.0,29.90,NW,318,4.0,-999.0,67,-99.99,,,-99.99,,2013-02-21 08:32:00,
2013-02-21 03:42:00,20.0,11.0,29.90,NW,318,4.0,-999.0,67,-99.99,,,-99.99,,2013-02-21 08:42:00,
2013-02-21 03:52:00,20.0,11.0,29.90,NW,311,2.0,-999.0,67,-99.99,,,-99.99,,2013-02-21 08:52:00,
2013-02-21 04:02:00,19.0,10.0,29.90,NNE,25,1.0,-999.0,67,-99.99,,,-99.99,,2013-02-21 09:02:00,
2013-02-21 04:11:00,19.0,10.0,29.90,NNE,25,1.0,-999.0,67,-99.99,,,-99.99,,2013-02-21 09:11:00,
2013-02-21 04:22:00,19.0,10.0,29.90,WNW,302,2.0,-999.0,68,-99.99,,,-99.99,,2013-02-21 09:22:00,
2013-02-21 04:32:00,19.0,10.0,29.90,West,270,1.0,-999.0,68,-99.99,,,-99.99,,2013-02-21 09:32:00,
2013-02-21 04:42:00,19.0,10.0,29.90,West,270,1.0,-999.0,68,-99.99,,,-99.99,,2013-02-21 09:42:00,
2013-02-21 04:51:00,19.0,11.0,29.91,WSW,255,1.0,-999.0,69,-99.99,,,-99.99,,2013-02-21 09:51:00,
2013-02-21 05:01:00,19.0,11.0,29.91,WNW,303,1.0,-999.0,70,-99.99,,,-99.99,,2013-02-21 10:01:00,
2013-02-21 05:11:00,19.0,11.0,29.91,WNW,303,1.0,-999.0,70,-99.99,,,-99.99,,2013-02-21 10:11:00,
2013-02-21 05:21:00,19.0,11.0,29.91,WNW,303,1.0,-999.0,70,-99.99,,,-99.99,,2013-02-21 10:21:00,
2013-02-21 05:31:00,20.0,12.0,29.92,West,266,1.0,-999.0,70,-99.99,,,-99.99,,2013-02-21 10:31:00,
2013-02-21 05:41:00,20.0,12.0,29.92,West,266,1.0,-999.0,70,-99.99,,,-99.99,,2013-02-21 10:41:00,
2013-02-21 05:51:00,20.0,11.0,29.92,WNW,282,3.0,-999.0,69,-99.99,,,-99.99,,2013-02-21 10:51:00,
2013-02-21 06:01:00,20.0,12.0,29.92,WNW,298,1.0,-999.0,70,-99.99,,,-99.99,,2013-02-21 11:01:00,
2013-02-21 06:11:00,20.0,12.0,29.92,WNW,298,1.0,-999.0,70,-99.99,,,-99.99,,2013-02-21 11:11:00,
2013-02-21 06:21:00,20.0,12.0,29.92,NW,311,2.0,-999.0,70,-99.99,,,-99.99,,2013-02-21 11:21:00,
2013-02-21 06:31:00,20.0,12.0,29.93,WNW,289,1.0,-999.0,70,-99.99,,,-99.99,,2013-02-21 11:31:00,
2013-02-21 06:41:00,20.0,12.0,29.93,WNW,289,1.0,-999.0,70,-99.99,,,-99.99,,2013-02-21 11:41:00,
2013-02-21 06:51:00,20.0,12.0,29.93,WNW,301,1.0,-999.0,70,-99.99,,,-99.99,,2013-02-21 11:51:00,
2013-02-21 07:01:00,20.0,12.0,29.93,NW,316,1.0,-999.0,70,-99.99,,,-99.99,,2013-02-21 12:01:00,
2013-02-21 07:11:00,20.0,12.0,29.93,NW,316,1.0,-999.0,70,-99.99,,,-99.99,,2013-02-21 12:11:00,
2013-02-21 07:21:00,20.0,12.0,29.93,NNW,328,1.0,-999.0,70,-99.99,,,-99.99,,2013-02-21 12:21:00,
2013-02-21 07:32:00,20.0,12.0,29.93,SW,229,2.0,-999.0,70,-99.99,,,-99.99,,2013-02-21 12:32:00,
2013-02-21 07:43:00,20.0,12.0,29.93,WSW,250,0.0,-999.0,70,-99.99,,,-99.99,,2013-02-21 12:43:00,
2013-02-21 07:52:00,20.0,12.0,29.93,WSW,250,0.0,-999.0,70,-99.99,,,-99.99,,2013-02-21 12:52:00,
2013-02-21 08:02:00,20.0,11.0,29.94,WNW,296,0.0,-999.0,69,-99.99,,,-99.99,,2013-02-21 13:02:00,
2013-02-21 08:12:00,20.0,11.0,29.94,WNW,296,0.0,-999.0,69,-99.99,,,-99.99,,2013-02-21 13:12:00,
2013-02-21 08:22:00,20.0,11.0,29.94,WNW,303,1.0,-999.0,69,-99.99,,,-99.99,,2013-02-21 13:22:00,
2013-02-21 08:32:00,21.0,12.0,29.94,WNW,283,2.0,-999.0,67,-99.99,,,-99.99,,2013-02-21 13:32:00,
2013-02-21 08:42:00,21.0,12.0,29.94,WNW,283,2.0,-999.0,67,-99.99,,,-99.99,,2013-02-21 13:42:00,
2013-02-21 08:51:00,21.0,11.0,29.93,North,8,3.0,-999.0,66,-99.99,,,-99.99,,2013-02-21 13:51:00,
2013-02-21 09:02:00,22.0,12.0,29.94,WNW,282,4.0,-999.0,64,-99.99,,,-99.99,,2013-02-21 14:02:00,
2013-02-21 09:11:00,22.0,12.0,29.94,WNW,282,4.0,-999.0,64,-99.99,,,-99.99,,2013-02-21 14:11:00,
2013-02-21 09:22:00,22.0,11.0,29.94,WNW,288,4.0,-999.0,63,-99.99,,,-99.99,,2013-02-21 14:22:00,
2013-02-21 09:32:00,23.0,11.0,29.93,NNW,328,5.0,-999.0,60,-99.99,,,-99.99,,2013-02-21 14:32:00,
2013-02-21 09:42:00,23.0,11.0,29.93,NNW,328,5.0,-999.0,60,-99.99,,,-99.99,,2013-02-21 14:42:00,
2013-02-21 09:52:00,24.0,11.0,29.93,WNW,289,5.0,-999.0,57,-99.99,,,-99.99,,2013-02-21 14:52:00,
2013-02-21 10:02:00,25.0,11.0,29.94,NW,325,7.0,-999.0,55,-99.99,,,-99.99,,2013-02-21 15:02:00,
2013-02-21 10:12:00,25.0,11.0,29.94,NW,325,7.0,-999.0,55,-99.99,,,-99.99,,2013-02-21 15:12:00,
2013-02-21 10:21:00,25.0,11.0,29.94,NNW,337,5.0,-999.0,54,-99.99,,,-99.99,,2013-02-21 15:21:00,
2013-02-21 10:32:00,25.0,11.0,29.94,NW,320,5.0,-999.0,54,-99.99,,,-99.99,,2013-02-21 15:32:00,
2013-02-21 10:42:00,25.0,11.0,29.94,NW,320,5.0,-999.0,54,-99.99,,,-99.99,,2013-02-21 15:42:00,
2013-02-21 10:52:00,26.0,11.0,29.93,West,272,7.0,-999.0,52,-99.99,,,-99.99,,2013-02-21 15:52:00,
2013-02-21 11:02:00,27.0,12.0,29.94,NW,305,6.0,-999.0,53,-99.99,,,-99.99,,2013-02-21 16:02:00,
2013-02-21 11:12:00,27.0,12.0,29.95,NW,320,8.0,-999.0,52,-99.99,,,-99.99,,2013-02-21 16:12:00,
2013-02-21 11:22:00,27.0,12.0,29.95,NW,320,8.0,-999.0,52,-99.99,,,-99.99,,2013-02-21 16:22:00,
2013-02-21 11:32:00,28.0,12.0,29.95,NW,326,9.0,-999.0,50,-99.99,,,-99.99,,2013-02-21 16:32:00,
2013-02-21 11:42:00,28.0,12.0,29.96,NW,308,10.0,-999.0,51,-99.99,,,-99.99,,2013-02-21 16:42:00,
2013-02-21 11:52:00,28.0,12.0,29.96,NW,308,10.0,-999.0,51,-99.99,,,-99.99,,2013-02-21 16:52:00,
2013-02-21 12:02:00,29.0,13.0,29.96,NNW,341,8.0,-999.0,51,-99.99,,,-99.99,,2013-02-21 17:02:00,
2013-02-21 12:11:00,29.0,13.0,29.96,NE,38,8.0,-999.0,50,-99.99,,,-99.99,,2013-02-21 17:11:00,
2013-02-21 12:21:00,29.0,13.0,29.96,NE,38,8.0,-999.0,50,-99.99,,,-99.99,,2013-02-21 17:21:00,
2013-02-21 12:32:00,29.0,13.0,29.94,NNW,332,10.0,-999.0,50,-99.99,,,-99.99,,2013-02-21 17:32:00,
2013-02-21 12:42:00,29.0,13.0,29.94,NNW,332,10.0,-999.0,50,-99.99,,,-99.99,,2013-02-21 17:42:00,
2013-02-21 12:52:00,29.0,13.0,29.94,NNW,329,9.0,-999.0,50,-99.99,,,-99.99,,2013-02-21 17:52:00,
2013-02-21 13:02:00,30.0,14.0,29.94,NE,51,9.0,-999.0,50,-99.99,,,-99.99,,2013-02-21 18:02:00,
2013-02-21 13:12:00,30.0,14.0,29.94,NE,51,9.0,-999.0,50,-99.99,,,-99.99,,2013-02-21 18:12:00,
2013-02-21 13:22:00,30.0,14.0,29.94,North,4,10.0,-999.0,51,-99.99,,,-99.99,,2013-02-21 18:22:00,
2013-02-21 13:32:00,29.0,13.0,29.94,WNW,286,11.0,-999.0,51,-99.99,,,-99.99,,2013-02-21 18:32:00,
2013-02-21 13:42:00,29.0,13.0,29.94,WNW,286,11.0,-999.0,51,-99.99,,,-99.99,,2013-02-21 18:42:00,
2013-02-21 13:51:00,29.0,13.0,29.94,WNW,286,11.0,-999.0,51,-99.99,,,-99.99,,2013-02-21 18:51:00,
2013-02-21 14:01:00,28.0,13.0,29.94,North,359,11.0,-999.0,53,-99.99,,,-99.99,,2013-02-21 19:01:00,
2013-02-21 14:12:00,28.0,13.0,29.94,North,359,11.0,-999.0,53,-99.99,,,-99.99,,2013-02-21 19:12:00,
2013-02-21 14:21:00,29.0,13.0,29.93,NNE,13,13.0,-999.0,51,-99.99,,,-99.99,,2013-02-21 19:21:00,
2013-02-21 14:32:00,29.0,14.0,29.95,NNE,14,11.0,-999.0,52,-99.99,,,-99.99,,2013-02-21 19:32:00,
2013-02-21 14:42:00,29.0,14.0,29.95,NNE,14,11.0,-999.0,52,-99.99,,,-99.99,,2013-02-21 19:42:00,
2013-02-21 14:51:00,29.0,13.0,29.96,NW,308,10.0,-999.0,51,-99.99,,,-99.99,,2013-02-21 19:51:00,
2013-02-21 15:01:00,28.0,13.0,29.98,NE,39,13.0,-999.0,53,-99.99,,,-99.99,,2013-02-21 20:01:00,
2013-02-21 15:11:00,28.0,14.0,29.97,North,354,12.0,-999.0,54,-99.99,,,-99.99,,2013-02-21 20:11:00,
2013-02-21 15:21:00,28.0,14.0,29.97,North,354,12.0,-999.0,54,-99.99,,,-99.99,,2013-02-21 20:21:00,
2013-02-21 15:32:00,27.0,12.0,29.98,NE,37,13.0,-999.0,53,-99.99,,,-99.99,,2013-02-21 20:32:00,
2013-02-21 15:42:00,27.0,12.0,29.98,NE,37,13.0,-999.0,53,-99.99,,,-99.99,,2013-02-21 20:42:00,
2013-02-21 15:52:00,26.0,12.0,29.98,NNW,329,14.0,-999.0,55,-99.99,,,-99.99,,2013-02-21 20:52:00,
2013-02-21 16:02:00,26.0,12.0,29.98,NNW,337,13.0,-999.0,54,-99.99,,,-99.99,,2013-02-21 21:02:00,
2013-02-21 16:12:00,26.0,12.0,30.00,NE,37,13.0,-999.0,56,-99.99,,,-99.99,,2013-02-21 21:12:00,
2013-02-21 16:22:00,26.0,12.0,30.00,NE,37,13.0,-999.0,56,-99.99,,,-99.99,,2013-02-21 21:22:00,
2013-02-21 16:32:00,25.0,12.0,30.01,NE,37,12.0,-999.0,56,-99.99,,,-99.99,,2013-02-21 21:32:00,
2013-02-21 16:42:00,25.0,12.0,30.02,North,359,8.0,-999.0,56,-99.99,,,-99.99,,2013-02-21 21:42:00,
2013-02-21 16:52:00,25.0,12.0,30.02,North,359,8.0,-999.0,56,-99.99,,,-99.99,,2013-02-21 21:52:00,
2013-02-21 17:01:00,25.0,12.0,30.02,North,359,8.0,-999.0,56,-99.99,,,-99.99,,2013-02-21 22:01:00,
2013-02-21 17:11:00,25.0,12.0,30.02,North,359,8.0,-999.0,56,-99.99,,,-99.99,,2013-02-21 22:11:00,
2013-02-21 17:21:00,24.0,11.0,30.05,North,4,10.0,-999.0,57,-99.99,,,-99.99,,2013-02-21 22:21:00,
2013-02-21 17:32:00,23.0,11.0,30.06,NE,48,11.0,-999.0,59,-99.99,,,-99.99,,2013-02-21 22:32:00,
2013-02-21 17:42:00,22.0,10.0,30.08,NNE,21,14.0,-999.0,59,-99.99,,,-99.99,,2013-02-21 22:42:00,
2013-02-21 17:52:00,22.0,10.0,30.08,NNE,21,14.0,-999.0,59,-99.99,,,-99.99,,2013-02-21 22:52:00,
2013-02-21 18:01:00,22.0,10.0,30.09,NW,310,10.0,-999.0,60,-99.99,,,-99.99,,2013-02-21 23:01:00,
2013-02-21 18:11:00,22.0,10.0,30.09,NW,310,10.0,-999.0,60,-99.99,,,-99.99,,2013-02-21 23:11:00,
2013-02-21 18:21:00,21.0,10.0,30.10,North,359,10.0,-999.0,62,-99.99,,,-99.99,,2013-02-21 23:21:00,
2013-02-21 18:32:00,21.0,10.0,30.11,WNW,293,8.0,-999.0,62,-99.99,,,-99.99,,2013-02-21 23:32:00,
2013-02-21 18:42:00,21.0,10.0,30.11,WNW,293,8.0,-999.0,62,-99.99,,,-99.99,,2013-02-21 23:42:00,
2013-02-21 18:52:00,20.0,10.0,30.11,NE,39,7.0,-999.0,64,-99.99,,,-99.99,,2013-02-21 23:52:00,
2013-02-21 19:02:00,20.0,10.0,30.12,NNW,337,6.0,-999.0,64,-99.99,,,-99.99,,2013-02-22 00:02:00,
2013-02-21 19:11:00,20.0,10.0,30.12,NNW,337,6.0,-999.0,64,-99.99,,,-99.99,,2013-02-22 00:11:00,
2013-02-21 19:22:00,20.0,10.0,30.13,ENE,63,5.0,-999.0,64,-99.99,,,-99.99,,2013-02-22 00:22:00,
2013-02-21 19:32:00,20.0,10.0,30.13,ENE,63,5.0,-999.0,64,-99.99,,,-99.99,,2013-02-22 00:32:00,
2013-02-21 19:42:00,20.0,10.0,30.13,ENE,63,5.0,-999.0,64,-99.99,,,-99.99,,2013-02-22 00:42:00,
2013-02-21 19:52:00,20.0,10.0,30.14,NW,320,7.0,-999.0,65,-99.99,,,-99.99,,2013-02-22 00:52:00,
2013-02-21 20:01:00,20.0,10.0,30.15,NNW,335,9.0,-999.0,64,-99.99,,,-99.99,,2013-02-22 01:01:00,
2013-02-21 20:11:00,20.0,10.0,30.15,NNW,335,9.0,-999.0,64,-99.99,,,-99.99,,2013-02-22 01:11:00,
2013-02-21 20:22:00,20.0,10.0,30.16,NNW,344,8.0,-999.0,64,-99.99,,,-99.99,,2013-02-22 01:22:00,
2013-02-21 20:32:00,20.0,10.0,30.16,NNW,337,7.0,-999.0,65,-99.99,,,-99.99,,2013-02-22 01:32:00,
2013-02-21 20:42:00,20.0,10.0,30.16,NNW,337,7.0,-999.0,65,-99.99,,,-99.99,,2013-02-22 01:42:00,
2013-02-21 20:51:00,20.0,10.0,30.18,ENE,62,6.0,-999.0,65,-99.99,,,-99.99,,2013-02-22 01:51:00,
2013-02-21 21:02:00,20.0,10.0,30.20,NE,56,7.0,-999.0,65,-99.99,,,-99.99,,2013-02-22 02:02:00,
2013-02-21 21:11:00,20.0,10.0,30.20,NE,56,7.0,-999.0,65,-99.99,,,-99.99,,2013-02-22 02:11:00,
2013-02-21 21:21:00,20.0,11.0,30.21,WNW,300,6.0,-999.0,66,-99.99,,,-99.99,,2013-02-22 02:21:00,
2013-02-21 21:32:00,20.0,11.0,30.22,NE,37,8.0,-999.0,66,-99.99,,,-99.99,,2013-02-22 02:32:00,
2013-02-21 21:42:00,20.0,11.0,30.23,NW,322,5.0,-999.0,67,-99.99,,,-99.99,,2013-02-22 02:42:00,
2013-02-21 21:52:00,20.0,11.0,30.23,NW,322,5.0,-999.0,67,-99.99,,,-99.99,,2013-02-22 02:52:00,
2013-02-21 22:02:00,20.0,11.0,30.24,NE,50,4.0,-999.0,67,-99.99,,,-99.99,,2013-02-22 03:02:00,
2013-02-21 22:11:00,20.0,11.0,30.24,NE,50,4.0,-999.0,67,-99.99,,,-99.99,,2013-02-22 03:11:00,
2013-02-21 22:21:00,20.0,11.0,30.26,NW,321,2.0,-999.0,68,-99.99,,,-99.99,,2013-02-22 03:21:00,
2013-02-21 22:32:00,20.0,11.0,30.27,WNW,291,2.0,-999.0,68,-99.99,,,-99.99,,2013-02-22 03:32:00,
2013-02-21 22:42:00,20.0,11.0,30.27,WNW,291,2.0,-999.0,68,-99.99,,,-99.99,,2013-02-22 03:42:00,
2013-02-21 22:51:00,19.0,11.0,30.27,North,359,2.0,-999.0,69,-99.99,,,-99.99,,2013-02-22 03:51:00,
2013-02-21 23:02:00,19.0,11.0,30.27,NE,36,5.0,-999.0,70,-99.99,,,-99.99,,2013-02-22 04:02:00,
2013-02-21 23:11:00,19.0,11.0,30.28,NNE,30,4.0,-999.0,70,-99.99,,,-99.99,,2013-02-22 04:11:00,
2013-02-21 23:21:00,19.0,11.0,30.28,NNE,30,4.0,-999.0,70,-99.99,,,-99.99,,2013-02-22 04:21:00,
2013-02-21 23:32:00,19.0,11.0,30.29,NE,50,6.0,-999.0,70,-99.99,,,-99.99,,2013-02-22 04:32:00,
2013-02-21 23:42:00,19.0,11.0,30.29,NE,50,6.0,-999.0,70,-99.99,,,-99.99,,2013-02-22 04:42:00,
2013-02-21 23:51:00,19.0,11.0,30.30,NNW,340,5.0,-999.0,71,-99.99,,,-99.99,,2013-02-22 04:51:00,